owner,sensor,date,latitude,longitude,vertical_datum,sea_water_temperature,qcFlag
Chevron,ioos:station:wmo:42876:1,2018-06-01T00:02:00Z,26.2982,-91.0938,10.6,28.5,11111222
Chevron,ioos:station:wmo:42876:1,2018-06-01T00:12:00Z,26.2982,-91.0938,10.7,28.5,11111222
Chevron,ioos:station:wmo:42876:1,2018-06-01T00:22:00Z,26.2982,-91.0938,10.7,28.5,11111222
Chevron,ioos:station:wmo:42876:1,2018-06-01T00:32:00Z,26.2982,-91.0938,10.7,28.5,11111222
Chevron,ioos:station:wmo:42876:1,2018-06-01T00:42:00Z,26.2982,-91.0938,10.7,28.5,11111222
Chevron,ioos:station:wmo:42876:1,2018-06-01T00:52:00Z,26.2982,-91.0938,10.8,28.5,11111222
Chevron,ioos:station:wmo:42876:1,2018-06-01T01:02:00Z,26.2982,-91.0938,10.7,28.4,11111222
Chevron,ioos:station:wmo:42876:1,2018-06-01T01:12:00Z,26.2982,-91.0938,10.8,28.4,11111222
Chevron,ioos:station:wmo:42876:1,2018-06-01T01:22:00Z,26.2982,-91.0938,10.7,28.4,11111222
Chevron,ioos:station:wmo:42876:1,2018-06-01T01:32:00Z,26.2982,-91.0938,10.6,28.4,11111222
Chevron,ioos:station:wmo:42876:1,2018-06-01T01:42:00Z,26.2982,-91.0938,10.5,28.4,11111222
Chevron,ioos:station:wmo:42876:1,2018-06-01T01:52:00Z,26.2982,-91.0938,10.6,28.4,11111222
Chevron,ioos:station:wmo:42876:1,2018-06-01T02:02:00Z,26.2982,-91.0938,10.8,28.4,11111222
Chevron,ioos:station:wmo:42876:1,2018-06-01T02:12:00Z,26.2982,-91.0938,10.7,28.4,11111222
Chevron,ioos:station:wmo:42876:1,2018-06-01T02:22:00Z,26.2982,-91.0938,10.8,28.3,11111222
Chevron,ioos:station:wmo:42876:1,2018-06-01T02:32:00Z,26.2982,-91.0938,10.8,28.3,11111222
Chevron,ioos:station:wmo:42876:1,2018-06-01T02:42:00Z,26.2982,-91.0938,11.0,28.3,11111222
Chevron,ioos:station:wmo:42876:1,2018-06-01T02:52:00Z,26.2982,-91.0938,10.6,28.3,11111222
Chevron,ioos:station:wmo:42876:1,2018-06-01T03:02:00Z,26.2982,-91.0938,10.8,28.2,11111222
Chevron,ioos:station:wmo:42876:1,2018-06-01T03:12:00Z,26.2982,-91.0938,10.8,28.3,11111222
Chevron,ioos:station:wmo:42876:1,2018-06-01T03:22:00Z,26.2982,-91.0938,10.9,28.3,11111222
Chevron,ioos:station:wmo:42876:1,2018-06-01T03:32:00Z,26.2982,-91.0938,11.0,28.3,11111222
Chevron,ioos:station:wmo:42876:1,2018-06-01T03:42:00Z,26.2982,-91.0938,10.7,28.2,11111222
Chevron,ioos:station:wmo:42876:1,2018-06-01T03:52:00Z,26.2982,-91.0938,10.6,28.1,11111222
Chevron,ioos:station:wmo:42876:1,2018-06-01T04:02:00Z,26.2982,-91.0938,10.6,28.1,11111222
Chevron,ioos:station:wmo:42876:1,2018-06-01T04:12:00Z,26.2982,-91.0938,10.6,28.1,11111222
Chevron,ioos:station:wmo:42876:1,2018-06-01T04:22:00Z,26.2982,-91.0938,10.6,28.1,11111222
Chevron,ioos:station:wmo:42876:1,2018-06-01T04:32:00Z,26.2982,-91.0938,10.7,27.9,11111222
Chevron,ioos:station:wmo:42876:1,2018-06-01T04:42:00Z,26.2982,-91.0938,10.8,27.9,11111222
Chevron,ioos:station:wmo:42876:1,2018-06-01T04:52:00Z,26.2982,-91.0938,10.7,27.9,11111222
Chevron,ioos:station:wmo:42876:1,2018-06-01T05:02:00Z,26.2982,-91.0938,10.8,27.9,11111222
Chevron,ioos:station:wmo:42876:1,2018-06-01T05:12:00Z,26.2982,-91.0938,10.8,27.8,11111222
Chevron,ioos:station:wmo:42876:1,2018-06-01T05:22:00Z,26.2982,-91.0938,10.6,27.9,11111222
Chevron,ioos:station:wmo:42876:1,2018-06-01T05:32:00Z,26.2982,-91.0938,10.7,27.8,11111222
Chevron,ioos:station:wmo:42876:1,2018-06-01T05:42:00Z,26.2982,-91.0938,10.6,27.9,11111222
Chevron,ioos:station:wmo:42876:1,2018-06-01T05:52:00Z,26.2982,-91.0938,10.6,27.8,11111222
Chevron,ioos:station:wmo:42876:1,2018-06-01T06:02:00Z,26.2982,-91.0938,10.7,27.8,11111222
Chevron,ioos:station:wmo:42876:1,2018-06-01T06:12:00Z,26.2982,-91.0938,10.7,27.7,11111222
Chevron,ioos:station:wmo:42876:1,2018-06-01T06:22:00Z,26.2982,-91.0938,10.5,27.7,11111222
Chevron,ioos:station:wmo:42876:1,2018-06-01T06:32:00Z,26.2982,-91.0938,10.4,27.7,11111222
Chevron,ioos:station:wmo:42876:1,2018-06-01T06:42:00Z,26.2982,-91.0938,10.4,27.6,11111222
Chevron,ioos:station:wmo:42876:1,2018-06-01T06:52:00Z,26.2982,-91.0938,10.5,27.5,11111222
Chevron,ioos:station:wmo:42876:1,2018-06-01T07:02:00Z,26.2982,-91.0938,10.7,27.6,11111222
Chevron,ioos:station:wmo:42876:1,2018-06-01T07:12:00Z,26.2982,-91.0938,10.9,27.6,11111222
Chevron,ioos:station:wmo:42876:1,2018-06-01T07:22:00Z,26.2982,-91.0938,10.8,27.6,11111222
Chevron,ioos:station:wmo:42876:1,2018-06-01T07:32:00Z,26.2982,-91.0938,10.8,27.6,11111222
Chevron,ioos:station:wmo:42876:1,2018-06-01T07:42:00Z,26.2982,-91.0938,10.6,27.7,11111222
Chevron,ioos:station:wmo:42876:1,2018-06-01T07:52:00Z,26.2982,-91.0938,10.8,27.6,11111222
Chevron,ioos:station:wmo:42876:1,2018-06-01T08:02:00Z,26.2982,-91.0938,10.8,27.6,11111222
Chevron,ioos:station:wmo:42876:1,2018-06-01T08:12:00Z,26.2982,-91.0938,10.8,27.6,11111222
Chevron,ioos:station:wmo:42876:1,2018-06-01T08:22:00Z,26.2982,-91.0938,10.8,27.6,11111222
Chevron,ioos:station:wmo:42876:1,2018-06-01T08:32:00Z,26.2982,-91.0938,10.6,27.6,11111222
Chevron,ioos:station:wmo:42876:1,2018-06-01T08:42:00Z,26.2982,-91.0938,11.0,27.8,11111222
Chevron,ioos:station:wmo:42876:1,2018-06-01T08:52:00Z,26.2982,-91.0938,10.8,27.9,11111222
Chevron,ioos:station:wmo:42876:1,2018-06-01T09:02:00Z,26.2982,-91.0938,10.7,27.9,11111222
Chevron,ioos:station:wmo:42876:1,2018-06-01T09:12:00Z,26.2982,-91.0938,10.7,27.8,11111222
Chevron,ioos:station:wmo:42876:1,2018-06-01T09:22:00Z,26.2982,-91.0938,10.8,27.9,11111222
Chevron,ioos:station:wmo:42876:1,2018-06-01T09:32:00Z,26.2982,-91.0938,10.9,27.9,11111222
Chevron,ioos:station:wmo:42876:1,2018-06-01T09:42:00Z,26.2982,-91.0938,10.8,27.9,11111222
Chevron,ioos:station:wmo:42876:1,2018-06-01T09:52:00Z,26.2982,-91.0938,10.8,28.0,11111222
Chevron,ioos:station:wmo:42876:1,2018-06-01T10:02:00Z,26.2982,-91.0938,10.8,28.0,11111222
Chevron,ioos:station:wmo:42876:1,2018-06-01T10:12:00Z,26.2982,-91.0938,10.6,28.1,11111222
Chevron,ioos:station:wmo:42876:1,2018-06-01T10:22:00Z,26.2982,-91.0938,10.5,28.1,11111222
Chevron,ioos:station:wmo:42876:1,2018-06-01T10:32:00Z,26.2982,-91.0938,10.8,28.0,11111222
Chevron,ioos:station:wmo:42876:1,2018-06-01T10:42:00Z,26.2982,-91.0938,10.8,28.1,11111222
Chevron,ioos:station:wmo:42876:1,2018-06-01T10:52:00Z,26.2982,-91.0938,10.8,28.1,11111222
Chevron,ioos:station:wmo:42876:1,2018-06-01T11:02:00Z,26.2982,-91.0938,10.7,28.1,11111222
Chevron,ioos:station:wmo:42876:1,2018-06-01T11:12:00Z,26.2982,-91.0938,10.6,28.1,11111222
Chevron,ioos:station:wmo:42876:1,2018-06-01T11:22:00Z,26.2982,-91.0938,10.7,28.1,11111222
Chevron,ioos:station:wmo:42876:1,2018-06-01T11:32:00Z,26.2982,-91.0938,10.8,28.1,11111222
Chevron,ioos:station:wmo:42876:1,2018-06-01T11:42:00Z,26.2982,-91.0938,10.6,28.1,11111222
Chevron,ioos:station:wmo:42876:1,2018-06-01T11:52:00Z,26.2982,-91.0938,10.7,28.1,11111222
Chevron,ioos:station:wmo:42876:1,2018-06-01T12:02:00Z,26.2982,-91.0938,10.8,28.1,11111222
Chevron,ioos:station:wmo:42876:1,2018-06-01T12:12:00Z,26.2982,-91.0938,10.8,28.1,11111222
Chevron,ioos:station:wmo:42876:1,2018-06-01T12:22:00Z,26.2982,-91.0938,10.8,28.1,11111222
Chevron,ioos:station:wmo:42876:1,2018-06-01T12:32:00Z,26.2982,-91.0938,10.6,28.2,11111222
Chevron,ioos:station:wmo:42876:1,2018-06-01T12:42:00Z,26.2982,-91.0938,10.4,28.1,11111222
Chevron,ioos:station:wmo:42876:1,2018-06-01T12:52:00Z,26.2982,-91.0938,10.7,28.2,11111222
Chevron,ioos:station:wmo:42876:1,2018-06-01T13:02:00Z,26.2982,-91.0938,10.7,28.2,11111222
Chevron,ioos:station:wmo:42876:1,2018-06-01T13:12:00Z,26.2982,-91.0938,10.5,28.2,11111222
Chevron,ioos:station:wmo:42876:1,2018-06-01T13:22:00Z,26.2982,-91.0938,10.6,28.2,11111222
Chevron,ioos:station:wmo:42876:1,2018-06-01T13:32:00Z,26.2982,-91.0938,10.6,28.2,11111222
Chevron,ioos:station:wmo:42876:1,2018-06-01T13:42:00Z,26.2982,-91.0938,10.6,28.2,11111222
Chevron,ioos:station:wmo:42876:1,2018-06-01T13:52:00Z,26.2982,-91.0938,10.6,28.2,11111222
Chevron,ioos:station:wmo:42876:1,2018-06-01T14:02:00Z,26.2982,-91.0938,10.6,28.2,11111222
Chevron,ioos:station:wmo:42876:1,2018-06-01T14:12:00Z,26.2982,-91.0938,10.5,28.2,11111222
Chevron,ioos:station:wmo:42876:1,2018-06-01T14:22:00Z,26.2982,-91.0938,10.7,28.2,11111222
Chevron,ioos:station:wmo:42876:1,2018-06-01T14:32:00Z,26.2982,-91.0938,11.0,28.2,11111222
Chevron,ioos:station:wmo:42876:1,2018-06-01T14:42:00Z,26.2982,-91.0938,10.7,28.2,11111222
Chevron,ioos:station:wmo:42876:1,2018-06-01T14:52:00Z,26.2982,-91.0938,10.7,28.2,11111222
Chevron,ioos:station:wmo:42876:1,2018-06-01T15:02:00Z,26.2982,-91.0938,10.9,28.2,11111222
Chevron,ioos:station:wmo:42876:1,2018-06-01T15:13:00Z,26.2982,-91.0938,10.7,28.2,11111222
Chevron,ioos:station:wmo:42876:1,2018-06-01T15:23:00Z,26.2982,-91.0938,10.6,28.3,11111222
Chevron,ioos:station:wmo:42876:1,2018-06-01T15:33:00Z,26.2982,-91.0938,10.7,28.3,11111222
Chevron,ioos:station:wmo:42876:1,2018-06-01T15:43:00Z,26.2982,-91.0938,10.8,28.3,11111222
Chevron,ioos:station:wmo:42876:1,2018-06-01T15:53:00Z,26.2982,-91.0938,10.6,28.3,11111222
Chevron,ioos:station:wmo:42876:1,2018-06-01T16:03:00Z,26.2982,-91.0938,10.7,28.3,11111222
Chevron,ioos:station:wmo:42876:1,2018-06-01T16:13:00Z,26.2982,-91.0938,10.9,28.3,11111222
Chevron,ioos:station:wmo:42876:1,2018-06-01T16:23:00Z,26.2982,-91.0938,10.7,28.3,11111222
Chevron,ioos:station:wmo:42876:1,2018-06-01T16:33:00Z,26.2982,-91.0938,10.6,28.3,11111222
Chevron,ioos:station:wmo:42876:1,2018-06-01T16:43:00Z,26.2982,-91.0938,11.0,28.3,11111222
Chevron,ioos:station:wmo:42876:1,2018-06-01T16:53:00Z,26.2982,-91.0938,10.7,28.3,11111222
Chevron,ioos:station:wmo:42876:1,2018-06-01T17:03:00Z,26.2982,-91.0938,10.9,28.3,11111222
Chevron,ioos:station:wmo:42876:1,2018-06-01T17:13:00Z,26.2982,-91.0938,11.0,28.4,11111222
Chevron,ioos:station:wmo:42876:1,2018-06-01T17:23:00Z,26.2982,-91.0938,10.8,28.4,11111222
Chevron,ioos:station:wmo:42876:1,2018-06-01T17:33:00Z,26.2982,-91.0938,10.8,28.4,11111222
Chevron,ioos:station:wmo:42876:1,2018-06-01T17:43:00Z,26.2982,-91.0938,10.5,28.4,11111222
Chevron,ioos:station:wmo:42876:1,2018-06-01T17:53:00Z,26.2982,-91.0938,10.7,28.4,11111222
Chevron,ioos:station:wmo:42876:1,2018-06-01T18:03:00Z,26.2982,-91.0938,11.0,28.4,11111222
Chevron,ioos:station:wmo:42876:1,2018-06-01T18:13:00Z,26.2982,-91.0938,10.8,28.4,11111222
Chevron,ioos:station:wmo:42876:1,2018-06-01T18:23:00Z,26.2982,-91.0938,10.7,28.4,11111222
Chevron,ioos:station:wmo:42876:1,2018-06-01T18:33:00Z,26.2982,-91.0938,10.6,28.4,11111222
Chevron,ioos:station:wmo:42876:1,2018-06-01T18:43:00Z,26.2982,-91.0938,10.7,28.4,11111222
Chevron,ioos:station:wmo:42876:1,2018-06-01T18:53:00Z,26.2982,-91.0938,10.8,28.4,11111222
Chevron,ioos:station:wmo:42876:1,2018-06-01T19:03:00Z,26.2982,-91.0938,10.7,28.4,11111222
Chevron,ioos:station:wmo:42876:1,2018-06-01T19:13:00Z,26.2982,-91.0938,10.8,28.4,11111222
Chevron,ioos:station:wmo:42876:1,2018-06-01T19:23:00Z,26.2982,-91.0938,10.9,28.5,11111222
Chevron,ioos:station:wmo:42876:1,2018-06-01T19:33:00Z,26.2982,-91.0938,10.9,28.5,11111222
Chevron,ioos:station:wmo:42876:1,2018-06-01T19:43:00Z,26.2982,-91.0938,10.7,28.5,11111222
Chevron,ioos:station:wmo:42876:1,2018-06-01T19:53:00Z,26.2982,-91.0938,10.5,28.5,11111222
Chevron,ioos:station:wmo:42876:1,2018-06-01T20:03:00Z,26.2982,-91.0938,10.6,28.5,11111222
Chevron,ioos:station:wmo:42876:1,2018-06-01T20:13:00Z,26.2982,-91.0938,10.9,28.5,11111222
Chevron,ioos:station:wmo:42876:1,2018-06-01T20:23:00Z,26.2982,-91.0938,10.7,28.5,11111222
Chevron,ioos:station:wmo:42876:1,2018-06-01T20:33:00Z,26.2982,-91.0938,10.7,28.5,11111222
Chevron,ioos:station:wmo:42876:1,2018-06-01T20:43:00Z,26.2982,-91.0938,10.8,28.6,11111222
Chevron,ioos:station:wmo:42876:1,2018-06-01T20:53:00Z,26.2982,-91.0938,10.6,28.6,11111222
Chevron,ioos:station:wmo:42876:1,2018-06-01T21:03:00Z,26.2982,-91.0938,10.8,28.6,11111222
Chevron,ioos:station:wmo:42876:1,2018-06-01T21:13:00Z,26.2982,-91.0938,10.7,28.6,11111222
Chevron,ioos:station:wmo:42876:1,2018-06-01T21:23:00Z,26.2982,-91.0938,10.7,28.6,11111222
Chevron,ioos:station:wmo:42876:1,2018-06-01T21:33:00Z,26.2982,-91.0938,11.0,28.5,11111222
Chevron,ioos:station:wmo:42876:1,2018-06-01T21:43:00Z,26.2982,-91.0938,10.8,28.5,11111222
Chevron,ioos:station:wmo:42876:1,2018-06-01T21:53:00Z,26.2982,-91.0938,10.9,28.6,11111222
Chevron,ioos:station:wmo:42876:1,2018-06-01T22:03:00Z,26.2982,-91.0938,10.5,28.6,11111222
Chevron,ioos:station:wmo:42876:1,2018-06-01T22:13:00Z,26.2982,-91.0938,10.8,28.6,11111222
Chevron,ioos:station:wmo:42876:1,2018-06-01T22:23:00Z,26.2982,-91.0938,10.7,28.6,11111222
Chevron,ioos:station:wmo:42876:1,2018-06-01T22:33:00Z,26.2982,-91.0938,10.8,28.6,11111222
Chevron,ioos:station:wmo:42876:1,2018-06-01T22:43:00Z,26.2982,-91.0938,10.9,28.6,11111222
Chevron,ioos:station:wmo:42876:1,2018-06-01T22:53:00Z,26.2982,-91.0938,11.0,28.6,11111222
Chevron,ioos:station:wmo:42876:1,2018-06-01T23:03:00Z,26.2982,-91.0938,10.7,28.6,11111222
Chevron,ioos:station:wmo:42876:1,2018-06-01T23:13:00Z,26.2982,-91.0938,11.0,28.6,11111222
Chevron,ioos:station:wmo:42876:1,2018-06-01T23:23:00Z,26.2982,-91.0938,10.9,28.6,11111222
Chevron,ioos:station:wmo:42876:1,2018-06-01T23:33:00Z,26.2982,-91.0938,10.8,28.6,11111222
Chevron,ioos:station:wmo:42876:1,2018-06-01T23:43:00Z,26.2982,-91.0938,11.0,28.6,11111222
Chevron,ioos:station:wmo:42876:1,2018-06-01T23:53:00Z,26.2982,-91.0938,11.1,28.6,11111222
Chevron,ioos:station:wmo:42876:1,2018-06-02T00:03:00Z,26.2982,-91.0938,10.8,28.6,11111222
Chevron,ioos:station:wmo:42876:1,2018-06-02T00:13:00Z,26.2982,-91.0938,11.1,28.6,11111222
Chevron,ioos:station:wmo:42876:1,2018-06-02T00:23:00Z,26.2982,-91.0938,10.9,28.6,11111222
Chevron,ioos:station:wmo:42876:1,2018-06-02T00:33:00Z,26.2982,-91.0938,10.6,28.6,11111222
Chevron,ioos:station:wmo:42876:1,2018-06-02T00:43:00Z,26.2982,-91.0938,10.8,28.6,11111222
Chevron,ioos:station:wmo:42876:1,2018-06-02T00:53:00Z,26.2982,-91.0938,10.8,28.6,11111222
Chevron,ioos:station:wmo:42876:1,2018-06-02T01:03:00Z,26.2982,-91.0938,10.9,28.6,11111222
Chevron,ioos:station:wmo:42876:1,2018-06-02T01:13:00Z,26.2982,-91.0938,11.0,28.6,11111222
Chevron,ioos:station:wmo:42876:1,2018-06-02T01:23:00Z,26.2982,-91.0938,11.0,28.6,11111222
Chevron,ioos:station:wmo:42876:1,2018-06-02T01:33:00Z,26.2982,-91.0938,10.9,28.6,11111222
Chevron,ioos:station:wmo:42876:1,2018-06-02T01:43:00Z,26.2982,-91.0938,10.9,28.6,11111222
Chevron,ioos:station:wmo:42876:1,2018-06-02T01:53:00Z,26.2982,-91.0938,10.8,28.6,11111222
Chevron,ioos:station:wmo:42876:1,2018-06-02T02:03:00Z,26.2982,-91.0938,10.9,28.6,11111222
Chevron,ioos:station:wmo:42876:1,2018-06-02T02:13:00Z,26.2982,-91.0938,10.8,28.5,11111222
Chevron,ioos:station:wmo:42876:1,2018-06-02T02:23:00Z,26.2982,-91.0938,10.9,28.6,11111222
Chevron,ioos:station:wmo:42876:1,2018-06-02T02:33:00Z,26.2982,-91.0938,10.9,28.5,11111222
Chevron,ioos:station:wmo:42876:1,2018-06-02T02:43:00Z,26.2982,-91.0938,10.5,28.6,11111222
Chevron,ioos:station:wmo:42876:1,2018-06-02T02:53:00Z,26.2982,-91.0938,10.9,28.5,11111222
Chevron,ioos:station:wmo:42876:1,2018-06-02T03:03:00Z,26.2982,-91.0938,10.8,28.5,11111222
Chevron,ioos:station:wmo:42876:1,2018-06-02T03:13:00Z,26.2982,-91.0938,10.7,28.5,11111222
Chevron,ioos:station:wmo:42876:1,2018-06-02T03:23:00Z,26.2982,-91.0938,10.8,28.5,11111222
Chevron,ioos:station:wmo:42876:1,2018-06-02T03:33:00Z,26.2982,-91.0938,10.7,28.6,11111222
Chevron,ioos:station:wmo:42876:1,2018-06-02T03:43:00Z,26.2982,-91.0938,10.9,28.6,11111222
Chevron,ioos:station:wmo:42876:1,2018-06-02T03:53:00Z,26.2982,-91.0938,10.6,28.5,11111222
Chevron,ioos:station:wmo:42876:1,2018-06-02T04:03:00Z,26.2982,-91.0938,10.7,28.5,11111222
Chevron,ioos:station:wmo:42876:1,2018-06-02T04:13:00Z,26.2982,-91.0938,10.9,28.5,11111222
Chevron,ioos:station:wmo:42876:1,2018-06-02T04:23:00Z,26.2982,-91.0938,10.7,28.5,11111222
Chevron,ioos:station:wmo:42876:1,2018-06-02T04:33:00Z,26.2982,-91.0938,10.8,28.5,11111222
Chevron,ioos:station:wmo:42876:1,2018-06-02T04:43:00Z,26.2982,-91.0938,10.7,28.5,11111222
Chevron,ioos:station:wmo:42876:1,2018-06-02T04:53:00Z,26.2982,-91.0938,10.9,28.5,11111222
Chevron,ioos:station:wmo:42876:1,2018-06-02T05:03:00Z,26.2982,-91.0938,10.9,28.5,11111222
Chevron,ioos:station:wmo:42876:1,2018-06-02T05:13:00Z,26.2982,-91.0938,10.5,28.5,11111222
Chevron,ioos:station:wmo:42876:1,2018-06-02T05:23:00Z,26.2982,-91.0938,10.9,28.5,11111222
Chevron,ioos:station:wmo:42876:1,2018-06-02T05:33:00Z,26.2982,-91.0938,10.8,28.5,11111222
Chevron,ioos:station:wmo:42876:1,2018-06-02T05:43:00Z,26.2982,-91.0938,10.7,28.5,11111222
Chevron,ioos:station:wmo:42876:1,2018-06-02T05:53:00Z,26.2982,-91.0938,10.5,28.5,11111222
Chevron,ioos:station:wmo:42876:1,2018-06-02T06:03:00Z,26.2982,-91.0938,10.8,28.5,11111222
Chevron,ioos:station:wmo:42876:1,2018-06-02T06:13:00Z,26.2982,-91.0938,10.7,28.5,11111222
Chevron,ioos:station:wmo:42876:1,2018-06-02T06:23:00Z,26.2982,-91.0938,10.7,28.5,11111222
Chevron,ioos:station:wmo:42876:1,2018-06-02T06:33:00Z,26.2982,-91.0938,10.7,28.4,11111222
Chevron,ioos:station:wmo:42876:1,2018-06-02T06:43:00Z,26.2982,-91.0938,10.6,28.5,11111222
Chevron,ioos:station:wmo:42876:1,2018-06-02T06:53:00Z,26.2982,-91.0938,10.7,28.5,11111222
Chevron,ioos:station:wmo:42876:1,2018-06-02T07:03:00Z,26.2982,-91.0938,10.6,28.5,11111222
Chevron,ioos:station:wmo:42876:1,2018-06-02T07:13:00Z,26.2982,-91.0938,10.6,28.4,11111222
Chevron,ioos:station:wmo:42876:1,2018-06-02T07:23:00Z,26.2982,-91.0938,10.7,28.4,11111222
Chevron,ioos:station:wmo:42876:1,2018-06-02T07:33:00Z,26.2982,-91.0938,10.8,28.4,11111222
Chevron,ioos:station:wmo:42876:1,2018-06-02T07:43:00Z,26.2982,-91.0938,10.8,28.4,11111222
Chevron,ioos:station:wmo:42876:1,2018-06-02T07:53:00Z,26.2982,-91.0938,10.7,28.4,11111222
Chevron,ioos:station:wmo:42876:1,2018-06-02T08:03:00Z,26.2982,-91.0938,10.7,28.4,11111222
Chevron,ioos:station:wmo:42876:1,2018-06-02T08:13:00Z,26.2982,-91.0938,10.7,28.4,11111222
Chevron,ioos:station:wmo:42876:1,2018-06-02T08:23:00Z,26.2982,-91.0938,10.9,28.4,11111222
Chevron,ioos:station:wmo:42876:1,2018-06-02T08:33:00Z,26.2982,-91.0938,10.9,28.4,11111222
Chevron,ioos:station:wmo:42876:1,2018-06-02T08:43:00Z,26.2982,-91.0938,11.0,28.4,11111222
Chevron,ioos:station:wmo:42876:1,2018-06-02T08:54:00Z,26.2982,-91.0938,10.7,28.4,11111222
Chevron,ioos:station:wmo:42876:1,2018-06-02T09:04:00Z,26.2982,-91.0938,10.8,28.4,11111222
Chevron,ioos:station:wmo:42876:1,2018-06-02T09:14:00Z,26.2982,-91.0938,10.6,28.4,11111222
Chevron,ioos:station:wmo:42876:1,2018-06-02T09:24:00Z,26.2982,-91.0938,10.8,28.4,11111222
Chevron,ioos:station:wmo:42876:1,2018-06-02T09:34:00Z,26.2982,-91.0938,10.7,28.4,11111222
Chevron,ioos:station:wmo:42876:1,2018-06-02T09:44:00Z,26.2982,-91.0938,10.7,28.4,11111222
Chevron,ioos:station:wmo:42876:1,2018-06-02T09:54:00Z,26.2982,-91.0938,10.8,28.3,11111222
Chevron,ioos:station:wmo:42876:1,2018-06-02T10:04:00Z,26.2982,-91.0938,10.7,28.3,11111222
Chevron,ioos:station:wmo:42876:1,2018-06-02T10:14:00Z,26.2982,-91.0938,10.8,28.3,11111222
Chevron,ioos:station:wmo:42876:1,2018-06-02T10:24:00Z,26.2982,-91.0938,10.6,28.3,11111222
Chevron,ioos:station:wmo:42876:1,2018-06-02T10:34:00Z,26.2982,-91.0938,10.8,28.3,11111222
Chevron,ioos:station:wmo:42876:1,2018-06-02T10:44:00Z,26.2982,-91.0938,10.5,28.3,11111222
Chevron,ioos:station:wmo:42876:1,2018-06-02T10:54:00Z,26.2982,-91.0938,10.7,28.3,11111222
Chevron,ioos:station:wmo:42876:1,2018-06-02T11:04:00Z,26.2982,-91.0938,10.6,28.2,11111222
Chevron,ioos:station:wmo:42876:1,2018-06-02T11:14:00Z,26.2982,-91.0938,10.7,28.2,11111222
Chevron,ioos:station:wmo:42876:1,2018-06-02T11:24:00Z,26.2982,-91.0938,10.6,28.2,11111222
Chevron,ioos:station:wmo:42876:1,2018-06-02T11:34:00Z,26.2982,-91.0938,10.4,28.2,11111222
Chevron,ioos:station:wmo:42876:1,2018-06-02T11:44:00Z,26.2982,-91.0938,11.0,28.3,11111222
Chevron,ioos:station:wmo:42876:1,2018-06-02T11:54:00Z,26.2982,-91.0938,10.6,28.3,11111222
Chevron,ioos:station:wmo:42876:1,2018-06-02T12:04:00Z,26.2982,-91.0938,10.8,28.3,11111222
Chevron,ioos:station:wmo:42876:1,2018-06-02T12:14:00Z,26.2982,-91.0938,10.9,28.3,11111222
Chevron,ioos:station:wmo:42876:1,2018-06-02T12:24:00Z,26.2982,-91.0938,10.7,28.2,11111222
Chevron,ioos:station:wmo:42876:1,2018-06-02T12:34:00Z,26.2982,-91.0938,10.7,28.2,11111222
Chevron,ioos:station:wmo:42876:1,2018-06-02T12:44:00Z,26.2982,-91.0938,10.8,28.2,11111222
Chevron,ioos:station:wmo:42876:1,2018-06-02T12:54:00Z,26.2982,-91.0938,10.7,28.2,11111222
Chevron,ioos:station:wmo:42876:1,2018-06-02T13:04:00Z,26.2982,-91.0938,10.7,28.3,11111222
Chevron,ioos:station:wmo:42876:1,2018-06-02T13:14:00Z,26.2982,-91.0938,10.6,28.3,11111222
Chevron,ioos:station:wmo:42876:1,2018-06-02T13:24:00Z,26.2982,-91.0938,10.7,28.3,11111222
Chevron,ioos:station:wmo:42876:1,2018-06-02T13:34:00Z,26.2982,-91.0938,10.6,28.3,11111222
Chevron,ioos:station:wmo:42876:1,2018-06-02T13:44:00Z,26.2982,-91.0938,10.8,28.3,11111222
Chevron,ioos:station:wmo:42876:1,2018-06-02T13:54:00Z,26.2982,-91.0938,10.6,28.3,11111222
Chevron,ioos:station:wmo:42876:1,2018-06-02T14:04:00Z,26.2982,-91.0938,10.7,28.3,11111222
Chevron,ioos:station:wmo:42876:1,2018-06-02T14:14:00Z,26.2982,-91.0938,10.8,28.3,11111222
Chevron,ioos:station:wmo:42876:1,2018-06-02T14:24:00Z,26.2982,-91.0938,10.5,28.3,11111222
Chevron,ioos:station:wmo:42876:1,2018-06-02T14:34:00Z,26.2982,-91.0938,10.6,28.3,11111222
Chevron,ioos:station:wmo:42876:1,2018-06-02T14:44:00Z,26.2982,-91.0938,10.6,28.3,11111222
Chevron,ioos:station:wmo:42876:1,2018-06-02T14:54:00Z,26.2982,-91.0938,10.6,28.3,11111222
Chevron,ioos:station:wmo:42876:1,2018-06-02T15:04:00Z,26.2982,-91.0938,10.7,28.3,11111222
Chevron,ioos:station:wmo:42876:1,2018-06-02T15:14:00Z,26.2982,-91.0938,10.9,28.3,11111222
Chevron,ioos:station:wmo:42876:1,2018-06-02T15:24:00Z,26.2982,-91.0938,10.8,28.3,11111222
Chevron,ioos:station:wmo:42876:1,2018-06-02T15:34:00Z,26.2982,-91.0938,10.5,28.4,11111222
Chevron,ioos:station:wmo:42876:1,2018-06-02T15:44:00Z,26.2982,-91.0938,10.7,28.4,11111222
Chevron,ioos:station:wmo:42876:1,2018-06-02T15:54:00Z,26.2982,-91.0938,10.6,28.4,11111222
Chevron,ioos:station:wmo:42876:1,2018-06-02T16:04:00Z,26.2982,-91.0938,10.5,28.4,11111222
Chevron,ioos:station:wmo:42876:1,2018-06-02T16:14:00Z,26.2982,-91.0938,10.5,28.4,11111222
Chevron,ioos:station:wmo:42876:1,2018-06-02T16:24:00Z,26.2982,-91.0938,11.0,28.4,11111222
Chevron,ioos:station:wmo:42876:1,2018-06-02T16:34:00Z,26.2982,-91.0938,10.6,28.4,11111222
Chevron,ioos:station:wmo:42876:1,2018-06-02T16:44:00Z,26.2982,-91.0938,10.6,28.5,11111222
Chevron,ioos:station:wmo:42876:1,2018-06-02T16:54:00Z,26.2982,-91.0938,10.4,28.5,11111222
Chevron,ioos:station:wmo:42876:1,2018-06-02T17:04:00Z,26.2982,-91.0938,10.8,28.5,11111222
Chevron,ioos:station:wmo:42876:1,2018-06-02T17:14:00Z,26.2982,-91.0938,10.7,28.5,11111222
Chevron,ioos:station:wmo:42876:1,2018-06-02T17:24:00Z,26.2982,-91.0938,10.7,28.5,11111222
Chevron,ioos:station:wmo:42876:1,2018-06-02T17:34:00Z,26.2982,-91.0938,10.9,28.5,11111222
Chevron,ioos:station:wmo:42876:1,2018-06-02T17:44:00Z,26.2982,-91.0938,10.8,28.5,11111222
Chevron,ioos:station:wmo:42876:1,2018-06-02T17:54:00Z,26.2982,-91.0938,10.8,28.5,11111222
Chevron,ioos:station:wmo:42876:1,2018-06-02T18:04:00Z,26.2982,-91.0938,10.9,28.6,11111222
Chevron,ioos:station:wmo:42876:1,2018-06-02T18:14:00Z,26.2982,-91.0938,10.9,28.6,11111222
Chevron,ioos:station:wmo:42876:1,2018-06-02T18:24:00Z,26.2982,-91.0938,11.1,28.6,11111222
Chevron,ioos:station:wmo:42876:1,2018-06-02T18:34:00Z,26.2982,-91.0938,11.0,28.7,11111222
Chevron,ioos:station:wmo:42876:1,2018-06-02T18:44:00Z,26.2982,-91.0938,11.1,28.7,11111222
Chevron,ioos:station:wmo:42876:1,2018-06-02T18:54:00Z,26.2982,-91.0938,11.3,28.7,11111222
Chevron,ioos:station:wmo:42876:1,2018-06-02T19:04:00Z,26.2982,-91.0938,11.3,28.7,11111222
Chevron,ioos:station:wmo:42876:1,2018-06-02T19:14:00Z,26.2982,-91.0938,11.3,28.7,11111222
Chevron,ioos:station:wmo:42876:1,2018-06-02T19:24:00Z,26.2982,-91.0938,11.5,28.7,11111222
Chevron,ioos:station:wmo:42876:1,2018-06-02T19:34:00Z,26.2982,-91.0938,11.0,28.7,11111222